Location: Ch�telans
(45.7734°N, 5.3065°E)
Time: 01:23:48
(UTC+00:00)

Daily predictions for brighter satellites

Satellite Brightness Start Highest point End
(mag) Time Altitude Azimuth Time Altitude Azimuth Time Altitude Azimuth
Cosmos 2278 Rocket 4.3 03:36:40 19° SE 03:36:40 19° SE 03:38:11 10° SE
Cosmos 2219 Rocket 4.3 03:41:53 18° NNE 03:41:53 18° NNE 03:43:16 10° NNE
Cosmos 2237 Rocket 3.3 03:43:06 40° ENE 03:43:06 40° ENE 03:47:16 10° NE
BREEZE-M DEB (TANK) 4.0 03:55:50 73° NW 03:56:44 85° NNE 04:01:15 10° ESE
Cosmos 2333 Rocket 4.1 04:04:35 19° N 04:04:35 19° N 04:06:21 10° NNE
Lacrosse 4 Rocket 3.4 04:04:26 28° E 04:04:26 28° E 04:07:18 10° NE
FENGYUN 3A 4.5 04:01:15 10° NNE 04:04:53 43° NNE 04:04:53 43° NNE
Cosmos 1891 Rocket 4.4 04:10:02 78° NE 04:10:02 78° NE 04:15:48 10° N
Cosmos 1464 Rocket 3.9 04:13:46 62° S 04:14:52 82° E 04:21:04 10° N
Gbstr 26 Del rocket 4.3 04:13:50 65° SSW 04:15:01 79° SSE 04:23:09 10° ENE
Cosmos 841 Rocket 4.1 04:16:53 48° NNE 04:16:53 48° NNE 04:20:37 10° NNE
Cosmos 1980 3.9 04:17:06 63° NNE 04:17:06 63° NNE 04:21:50 10° NNE
Meteor 1-21 Rocket 4.4 04:17:53 35° N 04:20:28 75° ENE 04:26:19 10° SSE
FALCON 9 R/B 4.2 04:24:54 12° S 04:24:54 12° S 04:25:33 10° S
COSMOS 2428 4.2 04:25:09 24° N 04:25:09 24° N 04:27:45 10° NNE
Cosmos 1072 Rocket 4.3 04:22:08 77° SW 04:22:34 82° W 04:28:57 10° N
Atlas Centaur 2 4.1 04:26:51 22° SSW 04:28:07 23° S 04:34:02 10° SE
ATLAS CENTAUR R/B 2.8 04:31:44 30° ENE 04:31:44 30° ENE 04:33:48 10° NE
METEOR-M 4.0 04:28:27 10° NNE 04:33:51 86° WNW 04:34:33 68° SSW
Lacrosse 5 rocket 3.8 04:40:11 12° SSE 04:40:11 12° SSE 04:40:27 10° SSE
Cosmos 2084 Rocket 3.7 04:37:18 67° ENE 04:37:18 67° ENE 04:41:37 10° SE
Cosmos 1340 4.3 04:42:00 27° SSE 04:42:00 27° SSE 04:43:48 10° SSE
Cosmos 372 Rocket 3.8 04:40:33 74° SW 04:40:33 74° SW 04:45:35 10° SSE
ALOS 4.2 04:36:37 10° N 04:37:53 18° N 04:37:53 18° N
USA 215 3.9 04:36:05 10° NE 04:42:02 39° NNW 04:43:15 36° NW
Cosmos 1602 Rocket 3.9 04:40:25 27° N 04:42:47 64° E 04:47:14 10° SSE
ADEOS 3.4 04:38:59 10° NNE 04:44:14 85° WNW 04:47:41 22° SSW
USA 307 3.0 04:44:43 73° ESE 04:44:43 73° ESE 04:48:42 10° ENE
NOSS 0 Rocket 4.1 04:45:40 50° NW 04:45:40 50° NW 04:51:39 10° NNE
Cosmos 1328 4.2 04:46:59 43° NNE 04:48:01 60° E 04:51:52 10° SSE
Nadezhda 4 Rocket 3.8 04:42:52 10° NNW 04:48:59 76° W 04:55:05 10° S
USA 305 2.8 04:50:49 85° ESE 04:50:49 85° ESE 04:55:00 10° ENE
USA 308 2.8 04:53:18 83° SSW 04:53:27 87° SSE 04:57:45 10° ENE
Cosmos 1400 Rocket 2.8 04:53:19 66° S 04:53:52 89° ESE 04:58:03 10° N
SL-4 R/B 2.0 04:55:30 67° NNE 04:55:30 67° NNE 04:59:06 10° ENE
Cosmos 1943 Rocket 3.0 04:51:10 13° NNW 04:56:04 50° ENE 05:01:34 10° SE
Cosmos 2034 Rocket 3.9 04:50:08 10° SSW 04:56:28 70° W 05:02:50 10° N
Meteor 1-16 Rocket 4.2 04:51:31 10° SSW 04:57:26 78° W 05:03:24 10° N
Cosmos 1570 Rocket 4.0 04:57:35 54° W 04:57:56 55° WNW 05:03:07 10° NNE
CZ-4B R/B 4.0 04:57:02 10° S 04:57:25 13° S 04:57:25 13° S
Cosmos 540 Rocket 4.1 05:01:39 37° NW 05:01:39 37° NW 05:05:38 10° N
CZ-2C R/B 4.4 04:56:56 10° ESE 05:01:28 30° ENE 05:06:06 10° N
SJ-12 3.8 04:58:20 10° N 05:02:29 74° WNW 05:04:12 34° SSW
USA 306 2.7 05:02:36 70° W 05:03:01 80° NNW 05:07:17 10° NE
Cosmos 2298 Rocket 3.9 05:00:29 24° NNW 05:03:50 84° WSW 05:09:10 10° SSE
NOSS 3-2 (A) 3.3 05:00:28 20° SSW 05:04:33 85° SE 05:11:04 10° NE
Cosmos 1814 Rocket 4.0 05:03:50 48° W 05:04:38 53° WNW 05:09:40 10° NNE
Cosmos 2369 Rocket 3.5 05:01:12 10° NNW 05:06:23 37° NE 05:11:31 10° ESE
Cosmos 1125 Rocket 3.7 05:01:52 13° NNW 05:06:37 72° ENE 05:11:54 10° SSE
Envisat 4.1 05:01:46 10° NNE 05:06:40 46° E 05:11:32 10° S
Cosmos 1634 Rocket 4.3 05:00:42 10° S 05:06:47 67° E 05:12:56 10° NNE
COSMO-SKYMED 1 2.6 05:07:03 10° S 05:11:18 56° W 05:12:33 40° NW
CZ-4B R/B 2.6 05:07:53 10° NNE 05:11:34 89° ESE 05:15:21 10° SSW
CZ-4B R/B 4.3 05:09:05 10° N 05:13:22 46° WNW 05:13:34 46° W
PSLV R/B 3.9 05:09:15 10° SSE 05:13:23 82° ENE 05:17:35 10° NNW
Cosmos 2278 Rocket 3.8 05:18:36 17° SW 05:18:36 17° SW 05:20:21 10° SSW
USA 267 4.4 05:11:27 10° S 05:16:12 21° WSW 05:16:23 21° WSW
Cosmos 2228 3.7 05:12:53 10° S 05:17:00 53° E 05:21:09 10° NNE
SL-16 R/B 2.1 05:12:02 10° SSW 05:17:42 86° WNW 05:23:25 10° NNE
NOSS 3-2 (C) 3.7 05:12:42 10° SSW 05:18:14 66° ESE 05:24:35 10° NE
CZ-2C R/B 3.4 05:19:17 15° SSW 05:20:24 16° SSW 05:23:00 10° SSE
ERBS 4.1 05:18:20 10° SSW 05:21:14 30° SE 05:24:09 10° ENE
Cosmos 972 Rocket 4.2 05:15:51 10° SSW 05:22:09 78° WNW 05:27:46 10° NNE
Cosmos 2219 Rocket 4.0 05:23:37 14° NNW 05:23:37 14° NNW 05:25:45 10° N
ERS-2 2.1 05:20:26 10° S 05:24:00 55° WSW 05:25:10 37° NW
Cosmos 2026 Rocket 4.0 05:18:21 10° N 05:24:45 84° W 05:31:08 10° S
CENTAUR R/B 2.6 05:19:36 10° SSW 05:25:27 78° SE 05:32:27 10° NE
ATLAS 5 CENTAUR R/B 3.3 05:25:47 20° SW 05:25:47 20° SW 05:29:17 10° S
Cosmos 2208 Rocket 4.4 05:23:25 25° WSW 05:26:00 41° WNW 05:31:07 10° N
Cosmos 2237 Rocket 2.9 05:24:59 29° WNW 05:26:05 31° NW 05:31:09 10° N
H-2A R/B 2.5 05:24:49 10° N 05:28:33 74° WNW 05:32:17 10° SSW
FALCON 9 DEB 3.3 05:30:00 26° SW 05:31:31 60° SE 05:34:37 10° ENE
Meteor PRIRODA 3.7 05:29:39 10° N 05:33:12 51° WNW 05:36:43 10° SSW
Cosmos 1606 Rocket 3.7 05:29:09 10° S 05:33:26 73° E 05:37:46 10° NNE
FALCON 9 DEB 2.8 05:38:25 26° SW 05:40:00 81° SSE 05:43:07 10° ENE
Lacrosse 4 Rocket 2.3 05:40:48 26° W 05:42:05 31° NW 05:46:00 10° NNE
Cosmos 1300 2.6 05:41:38 10° SSW 05:45:23 59° W 05:49:10 10° N
Meteor 1-11 4.3 05:40:05 10° NNW 05:45:31 54° W 05:50:56 10° S
Cosmos 2333 Rocket 4.2 05:46:44 10° NW 05:46:59 10° NNW 05:47:13 10° NNW
SAR-Lupe-4 4.1 05:44:18 10° SSW 05:47:39 37° W 05:50:19 15° NW
Cosmos 1315 Rocket 2.7 05:46:05 10° SSW 05:49:57 63° WNW 05:53:51 10° N
deb Chang Zheng 4 4.2 05:47:04 10° N 05:50:51 32° WNW 05:54:37 10° SW
Cosmos 2142 Rocket 4.5 05:44:37 10° S 05:50:56 81° W 05:57:13 10° N
[s.n.47389] 3.9 05:48:38 10° SSW 05:51:03 36° SE 05:53:29 10° ENE
[s.n.47399] 3.9 05:48:40 10° SSW 05:51:05 36° SE 05:53:31 10° ENE
[s.n.47393] 3.9 05:48:42 10° SSW 05:51:07 36° SE 05:53:33 10° ENE
[s.n.47353] 3.9 05:48:46 10° SSW 05:51:11 36° SE 05:53:37 10° ENE
[s.n.47355] 3.9 05:48:49 10° SSW 05:51:14 36° SE 05:53:41 10° ENE
[s.n.47365] 3.9 05:48:52 10° SSW 05:51:18 37° SE 05:53:44 10° ENE
[s.n.47383] 3.9 05:48:57 10° SSW 05:51:22 37° SE 05:53:48 10° ENE
[s.n.47400] 3.9 05:48:56 10° SSW 05:51:24 37° SE 05:53:52 10° ENE
[s.n.47378] 3.9 05:49:03 10° SSW 05:51:28 37° SE 05:53:54 10° ENE
[s.n.47395] 3.9 05:49:06 10° SSW 05:51:31 37° SE 05:53:57 10° ENE
[s.n.47379] 3.8 05:49:12 10° SSW 05:51:37 37° SE 05:54:03 10° ENE
[s.n.47370] 3.8 05:49:12 10° SSW 05:51:37 37° SE 05:54:03 10° ENE
[s.n.47351] 3.9 05:49:13 10° SSW 05:51:41 37° SE 05:54:10 10° ENE
[s.n.47394] 3.8 05:49:18 10° SSW 05:51:44 37° SE 05:54:11 10° ENE
[s.n.47354] 3.8 05:49:23 10° SSW 05:51:48 37° SE 05:54:14 10° ENE
[s.n.47360] 3.8 05:49:24 10° SSW 05:51:50 37° SE 05:54:16 10° ENE
[s.n.47369] 3.8 05:49:29 10° SSW 05:51:55 37° SE 05:54:21 10° ENE
[s.n.47406] 3.8 05:49:31 10° SSW 05:51:57 37° SE 05:54:24 10° ENE
[s.n.47384] 3.8 05:49:35 10° SSW 05:52:00 37° SE 05:54:27 10° ENE
[s.n.47356] 3.8 05:49:38 10° SSW 05:52:03 37° SE 05:54:29 10° ENE
[s.n.47407] 3.8 05:49:41 10° SSW 05:52:06 37° SE 05:54:33 10° ENE
[s.n.47385] 3.8 05:49:41 10° SSW 05:52:08 38° SE 05:54:38 10° ENE
[s.n.47358] 3.8 05:49:48 10° SSW 05:52:14 37° SE 05:54:40 10° ENE
[s.n.47398] 3.8 05:49:50 10° SSW 05:52:16 37° SE 05:54:43 10° ENE
[s.n.47361] 3.8 05:49:54 10° SSW 05:52:20 37° SE 05:54:47 10° ENE
[s.n.47392] 3.8 05:49:56 10° SSW 05:52:21 38° SE 05:54:49 10° ENE
[s.n.47382] 3.8 05:50:00 10° SSW 05:52:25 38° SE 05:54:52 10° ENE
[s.n.47359] 3.8 05:50:01 10° SSW 05:52:28 38° SE 05:54:57 10° ENE
[s.n.47401] 3.8 05:50:07 10° SSW 05:52:33 38° SE 05:55:00 10° ENE
[s.n.47380] 3.8 05:50:06 10° SSW 05:52:34 38° SE 05:55:04 10° ENE
[s.n.47386] 3.8 05:50:14 10° SSW 05:52:40 38° SE 05:55:07 10° ENE
[s.n.47408] 3.8 05:50:13 10° SSW 05:52:41 38° SE 05:55:12 10° ENE
[s.n.47396] 3.8 05:50:20 10° SSW 05:52:46 38° SE 05:55:13 10° ENE
[s.n.47391] 3.8 05:50:21 10° SSW 05:52:48 38° SE 05:55:16 10° ENE
[s.n.47402] 3.8 05:50:25 10° SSW 05:52:51 38° SE 05:55:19 10° ENE
[s.n.47404] 3.8 05:50:29 10° SSW 05:52:55 38° SE 05:55:22 10° ENE
[s.n.47403] 3.8 05:50:32 10° SSW 05:52:58 38° SE 05:55:25 10° ENE
[s.n.47381] 3.8 05:50:35 10° SSW 05:53:01 38° SE 05:55:28 10° ENE
[s.n.47372] 3.8 05:50:39 10° SSW 05:53:06 38° SE 05:55:32 10° ENE
[s.n.47405] 3.8 05:50:41 10° SSW 05:53:07 38° SE 05:55:35 10° ENE
[s.n.47368] 3.8 05:50:46 10° SSW 05:53:13 38° SE 05:55:40 10° ENE
[s.n.47350] 3.8 05:50:48 10° SSW 05:53:15 38° SE 05:55:42 10° ENE
[s.n.47349] 3.8 05:50:47 10° SSW 05:53:17 39° SE 05:55:47 10° ENE
[s.n.47367] 3.8 05:50:52 10° SSW 05:53:20 39° SE 05:55:48 10° ENE
[s.n.47373] 3.8 05:50:55 10° SSW 05:53:24 39° SE 05:55:54 10° ENE
[s.n.47377] 3.8 05:50:58 10° SSW 05:53:27 39° SE 05:55:58 10° ENE
[s.n.47371] 3.8 05:51:00 10° SSW 05:53:29 39° SE 05:56:00 10° ENE
Cosmos 1655 Rocket 4.5 05:47:17 10° N 05:53:31 65° ENE 05:59:47 10° SSE
[s.n.47362] 3.8 05:51:03 10° SSW 05:53:32 39° SE 05:56:03 10° ENE
[s.n.47363] 3.8 05:51:06 10° SSW 05:53:36 39° SE 05:56:07 10° ENE
[s.n.47374] 3.7 05:51:12 10° SSW 05:53:39 39° SE 05:56:09 10° ENE
[s.n.47357] 3.7 05:51:16 10° SSW 05:53:44 39° SE 05:56:12 10° ENE
[s.n.47390] 3.7 05:51:20 10° SSW 05:53:47 39° SE 05:56:15 10° ENE
[s.n.47387] 3.7 05:51:22 10° SSW 05:53:49 39° SE 05:56:18 10° ENE
[s.n.47375] 3.7 05:51:23 10° SSW 05:53:50 39° SE 05:56:18 10° ENE
[s.n.47376] 3.8 05:51:22 10° SSW 05:53:53 40° SE 05:56:23 10° ENE
[s.n.47366] 3.7 05:51:32 10° SSW 05:54:00 39° SE 05:56:28 10° ENE
[s.n.47352] 3.7 05:51:35 10° SSW 05:54:03 39° SE 05:56:32 10° ENE
[s.n.47364] 3.7 05:51:38 10° SW 05:54:07 39° SE 05:56:36 10° ENE
[s.n.47388] 3.7 05:51:42 10° SW 05:54:10 40° SE 05:56:39 10° ENE
[s.n.47397] 3.7 05:51:48 10° SW 05:54:15 39° SE 05:56:43 10° ENE
Cosmos 2297 4.2 05:50:12 11° NW 05:55:14 40° WSW 06:00:32 10° S
MOS 1 Rocket 4.1 05:52:51 10° SSW 05:57:03 29° W 06:01:04 10° NW
Cosmos 1346 Rocket 3.4 05:54:54 10° NNW 05:58:32 34° W 06:02:09 10° SSW
ATLAS 3B R/B 4.5 05:52:56 10° S 05:58:42 34° ESE 06:04:33 10° NE
USA 238 DEB 3.7 05:53:56 10° WSW 06:00:25 58° NW 06:07:16 10° NE
USA 238 3.7 05:54:02 10° SW 06:00:31 58° NW 06:07:22 10° NE
Cosmos 1758 Rocket 4.2 05:59:21 10° NNW 06:03:23 33° W 06:07:22 10° SSW
NOAA 12 4.3 05:59:25 10° NNE 06:04:45 77° ESE 06:10:03 10° S
Cosmos 1689 Rocket 3.5 06:04:15 10° SW 06:06:26 19° W 06:07:23 17° WNW
ATLAS CENTAUR R/B 2.7 06:07:56 15° WNW 06:09:22 18° NW 06:11:57 10° N
Cosmos 1441 Rocket 3.8 06:06:13 10° N 06:10:09 60° ENE 06:13:59 10° SSE
TIMED 4.5 06:06:57 10° SSW 06:11:19 88° WNW 06:15:43 10° NNE
BREEZE M DEB (TANK) 1.9 06:11:53 10° WSW 06:14:10 90° WSW 06:19:19 10° ENE
SL-19 R/B 3.9 06:11:12 10° NNE 06:14:55 71° WNW 06:18:07 10° SSW
Cosmos 1726 Rocket 3.7 06:13:35 10° SSW 06:17:45 48° WNW 06:21:57 10° N
MOS 1-B 4.3 06:12:08 10° NNE 06:17:55 76° WNW 06:23:40 10° SSW
YAOGAN 6 3.5 06:15:30 10° N 06:18:43 28° WNW 06:21:55 10° SW
Cosmos 1892 2.7 06:15:13 10° NNW 06:19:03 68° W 06:22:52 10° S
Cosmos 1184 Rocket 3.9 06:16:22 10° N 06:19:32 46° ENE 06:22:42 10° SSE
Spot 2 4.0 06:15:35 10° N 06:19:34 58° WNW 06:23:36 10° SSW
Cosmos 2058 Rocket 3.0 06:15:19 10° SSW 06:19:43 75° W 06:24:11 10° N
Cosmos 1603 3.8 06:15:16 10° SSW 06:20:53 83° ESE 06:26:34 10° NNE
GEOS 3 Rocket 4.1 06:16:31 10° SSE 06:21:40 47° WSW 06:26:53 10° NW
FALCON 9 DEB 3.2 06:19:19 10° W 06:22:19 45° NNW 06:25:20 10° NE
USA 215 4.2 06:18:24 10° ENE 06:24:06 34° N 06:29:50 10° NW
USA 307 3.7 06:20:54 10° W 06:24:47 34° NNW 06:28:40 10° NE
CZ-4B DEB 4.4 06:23:30 10° N 06:28:53 52° WNW 06:34:15 10° SW
In-Cosmos 22 Rocket 4.3 06:24:10 10° NNW 06:29:28 53° W 06:34:38 10° S
Cosmos 2279 Rocket 4.2 06:23:50 10° SSW 06:29:50 48° WNW 06:35:54 10° N
FALCON 9 DEB 3.3 06:28:03 10° W 06:31:06 44° NNW 06:34:08 10° NE
USA 305 3.8 06:27:17 10° W 06:31:07 32° NNW 06:34:58 10° NE
Cosmos 2292 Rocket 3.5 06:28:21 10° NNW 06:31:09 33° W 06:34:22 10° SSW
CZ-2D R/B 4.5 06:28:15 10° NNE 06:31:57 47° E 06:35:37 10° S
Cosmos 1408 2.5 06:29:12 10° NNW 06:32:47 63° W 06:36:21 10° S
USA 308 3.8 06:29:57 10° W 06:33:51 32° NNW 06:37:44 10° NE
Cosmos 2098 Rocket 4.5 06:30:33 10° NNW 06:34:50 23° W 06:38:26 10° SW
Okean O Rocket 1.5 06:30:35 10° N 06:34:56 72° WNW 06:39:15 10° SSW
SL-4 R/B 2.8 06:31:29 10° WNW 06:35:06 36° N 06:39:01 10° ENE
